Current weather by "City, St" or "zip code"  
 

Current Conditions: Hot Springs / Ingalls, VA

Overcast


60.0 F

Last Updated on Sep 18 2020, 3:55 am EDT
Humidity: 79%
Wind Speed: N 5.8 mph
Barometer 30.01 in
Dewpoint: 53.4 F
Visibility: 10.00 mi
Precip: --
Heat Index: NA
Wind Chill: 60 F
Current conditions at:

Hot Springs / Ingalls, VA (KHSP)

Lat: 37.95 Lon: 79.83333

Local Radar Image active severe weather and emergency alerts image image weather storm and storm spotter reports image weather observation monitoring service image
Local
Radar
Active
Alerts
Storm Reports Obs
Monitoring

Sign-up For Email & Text Message Weather Alert Notification Services



Advertise Here

Observation History for Hot Springs / Ingalls, VA


Time Wind
(mph)
Vis
(mi)
Weather Precip (in) Temperature (F) Relative
Humidity
Wind
Chill
(F)
Heat
Index
(F)
Pressure
Air Dwpt altimeter
(in)
sea level
(mb)
Rmks
3:55 am EDT N 5.8 10.00 Overcast -- 60.0 53.4 79% 60 NA 30.01 M
2:55 am EDT N 4.6 10.00 Mostly Cloudy -- 59.0 54.7 85% 59 NA 30.00 M
1:55 am EDT N 4.6 10.00 Mostly Cloudy -- 60.0 56.7 89% 60 NA 30.02 M
12:55 am EDT NE 8.1 10.00 Overcast -- 60.0 58.1 92% 59 NA 30.03 M
11:55 pm EDT E 6.9 10.00 Overcast -- 60.0 58.3 93% 59 NA 30.04 M
10:55 pm EDT NE 6.9 4.00 Fog/Mist -- 60.0 58.3 94% 59 NA 30.03 M
9:55 pm EDT E 5.8 0.15 Light Rain -- 61.0 59.4 94% 61 NA 30.04 M
8:55 pm EDT E 8.1 0.15 Light Rain -- 61.0 59.5 94% 60 NA 30.04 M
7:55 pm EDT E 8.1 0.15 Rain -- 62.0 59.9 93% 61 NA 30.03 M
6:55 pm EDT E 6.9 0.15 Rain 00.07 62.0 60.1 94% 62 NA 30.03 M
5:55 pm EDT E 8.1 0.15 Rain -- 62.0 60.1 93% 61 NA 30.04 M
4:55 pm EDT E 6.9 0.15 Rain -- 62.0 60.3 93% 62 NA 30.05 M
3:55 pm EDT E 5.8 0.15 Light Rain -- 63.0 60.6 93% 63 NA 30.06 M
2:55 pm EDT E 5.8 0.15 Light Rain -- 64.0 61.3 93% NA NA 30.08 M
1:55 pm EDT E 4.6 0.15 Light Rain -- 63.0 61.2 93% 64 NA 30.10 M
12:55 pm EDT E 4.6 0.15 Light Rain -- 63.0 60.8 94% 64 NA 30.12 M
11:55 am EDT E 4.6 0.15 Light Rain -- 62.0 60.1 93% 62 NA 30.13 M
10:55 am EDT SE 4.6 0.15 Light Rain -- 62.0 60.1 93% 62 NA 30.14 M
9:35 am EDT SE 3.5 0.15 Light Rain -- 62.0 59.9 94% NA NA 30.13 M
8:55 am EDT N 0.0 0.15 Light Rain -- 63.0 60.8 93% NA NA 30.13 M
7:55 am EDT S 5.8 0.15 Fog -- 61.0 59.2 93% 61 NA 30.13 M
6:55 am EDT S 3.5 10.00 Overcast -- 61.0 58.5 91% NA NA 30.13 M
5:55 am EDT SW 6.9 10.00 Mostly Cloudy -- 60.0 56.5 87% 59 NA 30.13 M
4:55 am EDT SW 11.5 10.00 Fair -- 58.0 54.5 88% 56 NA 30.13 M

Regional Weather Observation


Lewisburg / Greenbrier, WV (KLWB)

Fog
56.0 F

Elkins, Elkins-Randolph County-Jennings Randolph Field, WV (KEKN)

Overcast
57.0 F

Roanoke, Roanoke Regional Airport, VA (KROA)

Mostly Cloudy
65.0 F

Virginia Tech Airport, VA (KBCB)

Overcast
62.0 F

Lynchburg, Lynchburg Regional Airport, VA (KLYH)

Overcast
66.0 F

Dublin / New River Valley, VA (KPSK)

Overcast
NULL F